Regional Weather Roundup
Issued by NWS Charleston, SC

Current Version | Previous Version | Text Only | Print | Product List | Glossary Off
Versions: 1 2 3 4 5 6 7 8 9 10 11 12 13 14 15 16 17 18 19 20 21 22 23 24 25 26 27 28 29 30 31 32 33 34 35 36 37 38 39 40 41 42 43 44 45 46 47 48 49 50
000 ASUS42 KCHS 042312 RWRCHS REGIONAL WEATHER ROUNDUP NATIONAL WEATHER SERVICE CHARLESTON SC 700 PM EDT FRI SEP 04 2015 NOTE: "FAIR" INDICATES FEW OR NO CLOUDS BELOW 12,000 FEET WITH NO SIGNIFICANT WEATHER AND/OR OBSTRUCTIONS TO VISIBILITY. NOT ALL STATIONS ARE QUALITY CONTROLLED BY THE NATIONAL WEATHER SERVICE. USE DATA WITH CAUTION...ESPECIALLY DEWPOINT OBSERVATIONS. SCZ027-030-031-034>040-042>050-050000- ...SOUTHEAST SOUTH CAROLINA... CITY SKY/WX TMP DP RH WIND PRES REMARKS N CHARLESTON MOCLDY 78 69 73 CALM 29.96R WATERFRONT PRK N/A 78 73 84 CALM 29.93R MOUNT PLEASANT FAIR 81 75 83 CALM 29.96S JOHNS ISLAND FAIR 75 73 94 CALM 29.96S PINOPOLIS N/A 86 73 66 S5 29.89R HX 93 MONCKS CORNER FAIR 82 72 69 CALM 29.96S SUMMERVILLE FAIR 81 72 74 CALM 29.97S BEAUFORT MCAS CLOUDY 77 71 82 CALM 29.95F BEAUFORT ARPT FAIR 79 75 89 W7 29.95F HILTON HEAD IS MOCLDY 79 70 73 NW6 29.96F WALTERBORO CLOUDY 81 68 65 CALM 29.96S ALLENDALE FAIR 82 72 69 S7G14 29.96R ...SOUTHERN MIDLANDS AND PEE DEE... CITY SKY/WX TMP DP RH WIND PRES REMARKS GEORGETOWN NOT AVBL KINGSTREE NOT AVBL ORANGEBURG PTCLDY 85 72 65 S12G18 29.96R HX 91 BARNWELL FAIR 82 75 78 CALM 29.96S AIKEN FAIR 84 64 51 SW3 30.00S MANNING FAIR 81 72 74 S3 29.97R COLUMBIA PTCLDY 91 67 44 SE7 29.94R HX 94 SUMTER PTCLDY 91 67 45 E8 29.94R HX 94 FLORENCE PTCLDY 86 74 67 CALM 29.95R HX 94 MYRTLE BEACH CLEAR 82 72 69 S7 29.97F N MYRTLE BEACH CLEAR 83 75 77 SE6 29.95F HX 90 $$ GAZ063-065-086>088-099>101-113>116-118-119-134>141-150-050000- ...SOUTHEAST GEORGIA... CITY SKY/WX TMP DP RH WIND PRES REMARKS SAVANNAH ARPT LGT RAIN 78 71 79 NE7 29.96S HUNTER AAF CLOUDY 80 76 86 N5 29.94S FORT STEWART CLOUDY 80 73 78 CALM 29.94R STATESBORO CLOUDY 78 73 82 CALM 29.97R SYLVANIA NOT AVBL CLAXTON NOT AVBL ...CSRA...CENTRAL AND FAR SOUTHEAST GEORGIA... CITY SKY/WX TMP DP RH WIND PRES REMARKS THOMSON PTCLDY 90 75 61 CALM 30.00R HX 100 AUGUSTA-BUSH PTCLDY 82 72 71 SE5 29.95R AUGUSTA-DANIEL PTCLDY 87 70 56 S6 29.97R HX 92 SWAINSBORO FAIR 77 73 88 CALM 29.97R VIDALIA PTCLDY 86 73 66 E6 29.96R HX 93 EASTMAN FAIR 88 73 60 E5 29.97R HX 96 HAZLEHURST FAIR 84 67 56 SE3 29.94S ALMA TSTM 79 72 79 E9 29.98R WAYCROSS TSTM 80 76 87 NE6 29.98R JESUP FAIR 79 75 89 CALM 29.96R BAXLEY TSTM 82 72 69 CALM 29.95R BRUNSWICK CLOUDY 79 73 83 CALM 29.96R SAINT SIMONS CLOUDY 83 77 82 NE3 29.95R HX 92 $$ SCZ027-028-034-036>038-045-046-048>050-GAZ119-141-050000- ...LAKE AND SUPPLEMENTAL COASTAL OBSERVATIONS... STATION/POSITION TIME TEMP WIND PRES WAVE SWELL AIR SEA DIR/SP/G HT/PER HT/PER/DIR (UTC) (F) (DEG/KT/KT) (MB) (FT/S) (FT/S/D) UPR LAKE MARION NOT AVBL WINYAH BAY NOT AVBL LAKE MURRAY 2200 88 350/ 3/ 4 1013.2R ACE BASIN NERRS NOT AVBL FORT PULASKI 2200 82 84 360/ 7/ 8 1015.0R SAPELO ISLAND 2200 80 CALM 1014.0R $$ ANZ835-935-AMZ111-154-330-350-352-354-370-450-454-472-050000- ...C-MAN AND BUOY OBSERVATIONS... STATION/POSITION TIME TEMP WIND PRES WAVE SWELL AIR SEA DIR/SP/G HT/PER HT/PER/DIR (UTC) (F) (DEG/KT/KT) (MB) (FT/S) (FT/S/D) BUOY 41004 2250 83 85 50/ 2/ 4 1014.2R 1/ 8 2/ 8 BUOY 41008 2250 84 86 90/ 2/ 4 1014.6R 1/13 FOLLY BEACH CMAN 2200 78 290/ 2/ 3 1014.5R CAPERS NEARSHORE 2208 83 130/ 6/ 6 1014.5R FRIPP NEARSHORE 2200 84 140/ 2/ 4 1013.9S STATION/POSITION TIME TEMP WIND PRES WAVE SWELL AIR SEA DIR/SP/G HT/PER HT/PER/DIR (UTC) (F) (DEG/KT/KT) (MB) (FT/S) (FT/S/D) 5E ST. MARYS GA 2221 87 N/A 1 FRYING PAN BUOY 2250 83 83 80/ 4/ 4 1014.7S 1/12 BUOY 41025 2250 81 84 20/ 12/ 14 1014.2R 1/10 2/300/10 CAPE LOOKOUT NC 2200 84 220/ 3/ 4 1013.6R BUOY 41002 2250 83 85 10/ 8/ 10 1013.1R 1/11 2/ 60/11 BUOY 41010 2220 84 86 10/ 6/ 8 1013.3F ST AUGUSTINE FL 2300 83 86 140/ 5/ 6 1015.2R $$

USA.gov is the U.S. government's official web portal to all federal, state and local government web resources and services.